Wind_Speed
9 9 9 9 9 8 8 8 8 8 9 9 9 9 9 8 7 8 8 8 8 8 8 8 9 9 10 10 10 11 10 10 10 10 10 10 10 10 10 10 9 9 9
10 10 10 10 9 9 9 9 9 9 9 10 10 10 9 8 9 9 9 9 9 9 9 9 9 10 10 11 11 12 11 10 10 10 10 10 11 11 11 11 11 10 10
10 10 10 11 11 11 10 10 10 10 10 10 10 10 9 9 10 11 10 10 10 10 11 11 10 10 10 11 11 12 11 11 11 11 11 12 12 11 12 12 12 12 11
11 11 11 11 11 11 12 12 11 11 11 11 11 10 10 10 10 11 12 11 11 11 12 12 12 11 11 11 11 11 12 12 12 12 12 13 13 13 13 13 13 13 13
12 12 12 12 12 12 12 12 12 12 12 11 11 11 10 10 10 11 12 12 12 13 13 13 13 12 12 12 12 12 12 12 12 13 13 14 14 14 14 14 14 13 14
14 14 14 13 13 12 12 12 12 12 12 12 12 12 12 11 11 12 12 12 13 13 13 14 14 14 14 14 14 13 13 14 14 14 15 15 15 16 16 16 16 15 15
14 14 14 14 14 14 13 13 13 13 13 13 13 13 13 13 13 14 14 14 14 14 14 15 15 16 16 15 16 16 16 16 16 16 17 17 17 17 18 18 17 17 17
15 15 14 13 14 14 15 14 14 13 14 15 14 14 14 14 14 15 15 15 15 16 16 16 16 16 17 17 17 17 17 17 18 18 19 19 19 20 20 19 19 19 19
14 14 13 13 13 14 14 15 15 15 15 15 15 15 15 15 15 16 16 16 16 17 17 18 18 18 19 18 19 19 19 19 19 20 19 19 20 20 20 20 20 21 21
15 14 14 14 14 14 14 15 16 16 16 16 17 16 16 17 17 17 16 17 18 18 19 19 20 19 18 19 19 19 20 20 20 21 21 20 20 20 20 21 21 21 22
15 15 15 15 15 15 16 16 16 17 17 17 17 17 17 18 18 18 17 18 18 19 19 20 21 20 20 20 20 19 20 20 21 21 20 20 20 20 20 20 20 21 22
15 16 16 16 16 17 17 17 17 17 18 18 18 18 18 19 19 19 19 19 19 20 20 20 21 21 22 22 21 21 21 21 20 20 21 21 21 21 21 21 21 22 23
17 17 17 17 18 18 18 18 17 18 19 18 18 18 19 20 20 20 20 20 20 20 21 21 21 21 21 21 21 22 22 22 22 21 21 21 22 22 23 23 23 23 24
18 19 19 19 19 19 18 18 17 17 18 18 19 19 20 20 20 20 20 20 20 20 20 21 21 21 21 22 21 21 22 22 22 22 22 22 23 24 24 24 24 25 25
19 20 20 20 20 20 20 19 18 18 19 19 19 20 21 21 22 22 21 21 21 21 21 21 21 21 22 22 22 22 23 22 23 23 23 23 24 24 24 24 25 26 26
20 21 21 21 21 21 20 20 19 19 20 20 20 21 22 23 23 23 22 22 22 22 22 22 23 23 23 23 23 24 24 24 24 24 24 24 25 25 26 26 26 26 27
21 22 22 22 22 22 21 21 20 20 21 21 22 22 23 24 24 24 23 23 23 24 24 24 24 24 25 25 25 25 25 25 25 25 24 25 25 26 26 27 27 27 27
23 24 24 24 24 23 22 22 22 21 21 21 22 23 23 24 24 24 24 24 24 25 25 25 25 25 25 25 25 25 25 26 25 25 25 25 26 26 27 27 27 28 28
25 25 25 25 25 25 24 23 23 22 22 22 23 23 23 23 23 24 25 25 25 25 25 25 25 25 24 25 25 25 25 26 26 26 26 26 26 27 28 27 27 28 28
26 26 26 25 25 25 25 24 23 23 23 23 23 23 23 22 22 22 24 24 25 25 25 25 25 25 25 25 26 26 26 27 27 26 27 27 27 27 28 27 27 27 28
27 27 26 26 26 26 25 24 24 24 24 24 24 23 24 24 23 23 24 25 25 25 26 26 27 26 26 26 27 27 27 27 27 27 27 27 27 27 27 28 28 28 27
27 27 26 26 26 25 25 25 25 25 25 25 25 25 25 24 24 24 25 26 26 26 27 27 27 27 26 27 27 28 28 27 27 28 28 28 28 28 28 28 28 28 28
27 27 27 27 27 25 25 26 26 26 26 26 26 26 26 26 26 26 26 27 27 27 27 28 28 27 28 28 29 29 29 29 29 29 29 29 29 30 30 29 30 30 29
29 28 27 27 27 26 26 27 27 27 27 27 26 26 26 27 27 27 28 28 28 28 28 28 28 28 29 29 30 30 30 30 30 30 31 31 30 31 30 29 29 29 29
29 28 27 26 26 27 27 27 27 27 27 26 26 26 26 27 27 28 28 28 28 28 29 28 28 28 29 29 30 30 31 31 31 31 32 32 31 30 29 29 29 29 29
28 28 28 27 27 27 26 27 27 27 27 27 27 27 27 27 27 28 28 28 29 30 30 30 29 29 30 30 31 31 31 31 31 31 32 32 31 31 31 30 30 29 29
Wind_Direction
289 284 280 277 273 267 267 265 264 265 269 271 273 275 279 278 275 273 275 282 287 288 286 285 284 284 277 272 270 271 270 262 257 257 259 252 252 259 257 260 262 264 266
294 289 284 280 275 273 272 268 265 268 272 274 274 273 275 274 271 273 277 278 282 287 284 284 284 286 284 275 272 269 269 268 261 259 257 255 254 255 256 257 260 264 266
293 291 285 280 278 275 270 267 266 269 273 275 276 273 275 277 275 275 277 277 280 282 282 282 284 286 285 281 274 268 265 265 261 259 260 261 261 262 258 256 258 260 261
288 286 286 281 277 273 270 266 267 269 271 274 277 276 277 279 278 275 274 275 276 278 278 280 282 286 284 280 274 272 270 270 265 262 263 262 260 261 261 257 257 258 259
283 283 281 282 280 272 268 266 266 268 271 273 276 275 275 277 279 279 276 274 272 273 274 277 280 283 285 281 274 276 276 274 272 268 265 262 261 262 261 261 260 259 261
285 284 283 281 281 275 267 264 262 265 268 271 275 277 275 276 279 280 280 279 277 276 276 276 278 279 280 278 274 275 277 274 273 272 267 265 262 262 263 264 263 261 262
284 284 283 279 279 275 267 267 265 264 268 272 275 277 278 278 279 279 279 280 280 278 276 276 279 278 275 275 272 273 275 276 273 273 270 267 264 263 263 264 262 260 262
281 282 280 277 275 274 269 268 270 268 269 272 275 277 278 280 281 282 281 281 282 281 278 276 278 280 278 274 270 273 275 275 274 272 270 270 269 268 266 264 264 260 259
279 277 277 277 274 275 276 269 268 269 271 272 274 276 278 279 281 282 282 281 281 280 278 279 281 282 280 276 271 273 274 274 273 272 272 271 271 270 269 267 266 263 260
277 275 276 277 276 277 280 277 272 270 272 272 273 276 277 278 279 279 280 282 281 278 279 281 282 282 282 280 277 276 274 273 273 273 272 272 271 272 271 269 268 267 264
274 274 274 275 275 276 278 275 274 273 273 273 273 274 276 278 280 280 281 282 281 280 279 279 281 280 282 281 281 281 279 275 274 274 273 271 272 273 272 272 272 270 268
276 276 276 276 277 278 278 278 275 273 273 273 274 274 275 276 278 279 279 281 281 280 280 281 282 282 282 282 282 282 280 278 277 276 275 274 273 273 274 273 273 273 272
277 276 277 276 277 279 281 281 281 276 273 273 274 273 273 274 276 279 279 280 282 281 279 280 282 283 283 284 283 281 278 277 275 276 275 274 273 273 272 273 273 273 272
279 278 278 279 279 281 280 281 280 278 274 276 276 276 276 275 274 277 278 279 280 281 280 281 282 283 283 283 283 282 280 277 275 274 274 273 273 275 274 273 272 273 273
279 281 280 280 279 280 280 278 277 277 276 277 277 277 277 277 276 277 277 278 280 281 281 281 281 282 283 283 282 283 282 280 278 275 274 274 274 276 275 274 273 273 273
278 280 281 280 279 280 280 276 276 276 277 277 279 279 277 278 278 276 276 276 277 279 281 281 282 281 282 283 283 283 283 281 279 277 275 274 274 275 275 275 274 273 273
277 278 280 278 278 277 277 275 275 276 277 278 279 281 281 278 277 276 276 277 278 279 280 281 282 282 282 282 282 282 280 279 279 278 276 275 275 274 275 276 274 274 273
277 278 278 277 276 276 274 273 274 276 277 278 280 282 282 280 277 276 276 276 277 279 280 281 282 283 284 283 283 282 280 279 279 277 276 276 276 275 275 275 275 275 274
275 277 278 277 276 274 272 272 274 276 277 278 280 282 283 283 279 277 277 277 278 278 278 280 281 282 282 283 284 283 281 280 280 279 278 277 277 277 276 275 275 274 273
275 275 275 276 274 273 272 273 275 275 276 279 281 281 283 284 280 278 278 278 278 278 278 279 281 282 282 283 283 283 282 282 281 282 281 278 276 278 277 276 276 275 274
274 274 273 274 273 273 273 272 273 275 276 278 280 281 281 281 280 278 278 279 278 277 278 280 281 281 282 282 283 284 284 282 282 282 281 280 280 279 278 277 275 275 274
274 273 274 274 274 272 272 272 273 274 275 278 279 279 280 280 280 281 279 279 279 280 279 280 281 282 282 283 284 284 285 284 283 282 282 281 281 281 281 281 280 277 276
274 274 273 274 273 271 272 272 273 274 274 276 278 279 280 281 281 282 282 280 280 280 278 278 280 282 284 283 284 285 285 285 284 283 282 283 283 281 281 282 282 279 277
274 275 273 274 272 271 272 272 271 272 274 275 277 278 280 282 281 282 283 283 282 281 279 278 280 283 285 285 284 284 284 284 284 283 283 283 282 282 281 281 281 281 278
274 274 273 273 272 271 271 272 271 272 273 274 276 278 280 282 282 282 282 283 284 283 281 280 281 283 285 286 286 286 285 285 285 285 284 284 283 282 280 279 279 280 280
274 274 274 273 273 272 271 272 272 272 272 272 274 277 279 280 282 281 282 282 283 283 282 281 281 283 284 286 287 287 286 285 285 285 284 283 282 281 279 278 277 278 279
Height
5862 5862 5862 5862 5862 5862 5863 5863 5863 5864 5864 5864 5864 5865 5865 5866 5866 5866 5866 5867 5867 5868 5868 5869 5869 5869 5869 5870 5871 5871 5872 5873 5874 5874 5875 5876 5877 5878 5878 5879 5879 5879 5880
5861 5861 5860 5860 5860 5860 5861 5861 5861 5862 5862 5862 5863 5863 5863 5864 5864 5864 5864 5865 5866 5866 5866 5867 5867 5867 5867 5867 5868 5869 5870 5871 5871 5872 5873 5874 5874 5875 5876 5876 5877 5877 5877
5859 5859 5859 5859 5859 5859 5859 5859 5860 5860 5860 5861 5861 5861 5862 5862 5862 5862 5863 5863 5864 5864 5864 5864 5865 5865 5865 5865 5866 5866 5868 5868 5869 5870 5870 5871 5872 5872 5873 5873 5874 5874 5875
5856 5856 5857 5857 5856 5856 5857 5857 5858 5859 5859 5859 5859 5859 5860 5860 5860 5861 5861 5861 5862 5862 5862 5862 5862 5862 5862 5863 5863 5864 5864 5865 5866 5867 5867 5868 5868 5869 5869 5870 5871 5871 5872
5854 5854 5854 5854 5854 5854 5854 5855 5856 5856 5857 5857 5857 5857 5858 5858 5858 5858 5859 5859 5860 5860 5860 5859 5860 5860 5860 5860 5860 5861 5861 5862 5863 5863 5864 5864 5865 5865 5866 5866 5867 5867 5868
5852 5851 5851 5852 5852 5852 5852 5852 5853 5854 5854 5855 5855 5855 5855 5855 5856 5856 5856 5856 5857 5857 5857 5857 5857 5857 5857 5857 5857 5858 5858 5859 5859 5860 5860 5860 5861 5861 5862 5862 5863 5863 5864
5848 5848 5848 5849 5849 5849 5849 5849 5850 5851 5851 5852 5852 5852 5853 5853 5853 5853 5853 5853 5854 5854 5854 5854 5854 5854 5853 5854 5854 5855 5855 5855 5855 5855 5856 5856 5857 5857 5857 5858 5858 5859 5859
5844 5845 5845 5845 5846 5846 5847 5847 5847 5848 5848 5849 5849 5849 5850 5850 5849 5850 5850 5850 5850 5850 5850 5850 5850 5850 5850 5850 5850 5851 5851 5851 5851 5851 5851 5852 5852 5852 5853 5853 5853 5854 5855
5841 5841 5842 5842 5843 5843 5843 5843 5844 5844 5845 5845 5845 5846 5846 5846 5846 5846 5846 5846 5846 5846 5846 5846 5846 5846 5846 5846 5846 5846 5846 5847 5847 5846 5846 5847 5847 5847 5848 5848 5848 5849 5849
5838 5838 5839 5839 5840 5840 5840 5840 5840 5841 5842 5842 5842 5842 5842 5842 5842 5843 5843 5842 5842 5842 5842 5842 5841 5841 5841 5841 5841 5841 5841 5841 5841 5841 5841 5841 5841 5842 5842 5842 5843 5843 5844
5835 5835 5836 5836 5837 5837 5837 5837 5837 5837 5838 5838 5838 5838 5838 5838 5838 5838 5838 5838 5838 5838 5838 5837 5837 5836 5836 5835 5835 5835 5836 5836 5836 5836 5836 5836 5837 5837 5837 5837 5837 5837 5837
5832 5832 5833 5833 5833 5834 5834 5833 5833 5833 5833 5834 5834 5834 5834 5834 5834 5834 5834 5834 5833 5833 5833 5832 5832 5832 5831 5830 5829 5830 5830 5830 5831 5831 5831 5831 5831 5831 5831 5831 5832 5832 5832
5828 5829 5829 5829 5829 5830 5829 5829 5829 5829 5829 5829 5829 5829 5829 5829 5829 5829 5829 5828 5828 5828 5828 5827 5827 5826 5826 5825 5824 5824 5824 5824 5825 5825 5825 5825 5825 5826 5826 5826 5826 5826 5826
5825 5825 5825 5825 5825 5825 5825 5825 5825 5824 5825 5825 5824 5824 5824 5824 5824 5823 5823 5823 5823 5823 5822 5822 5822 5821 5820 5820 5819 5819 5818 5819 5819 5819 5819 5819 5819 5819 5819 5819 5819 5819 5819
5820 5820 5820 5820 5820 5820 5820 5820 5820 5820 5820 5820 5820 5819 5819 5818 5818 5818 5818 5818 5817 5817 5817 5816 5816 5815 5814 5814 5813 5813 5813 5812 5812 5812 5812 5812 5812 5812 5812 5812 5812 5812 5812
5816 5816 5816 5815 5815 5815 5815 5815 5815 5815 5814 5814 5814 5814 5813 5813 5812 5812 5812 5812 5811 5811 5811 5810 5810 5809 5809 5808 5807 5807 5806 5806 5805 5805 5806 5805 5805 5805 5805 5805 5805 5805 5804
5810 5810 5810 5810 5810 5810 5810 5810 5810 5809 5809 5809 5808 5808 5807 5807 5806 5806 5806 5805 5805 5805 5804 5804 5803 5803 5802 5802 5801 5800 5799 5799 5799 5798 5798 5798 5798 5797 5797 5797 5797 5797 5796
5804 5804 5804 5804 5804 5804 5804 5804 5804 5804 5803 5803 5803 5802 5801 5800 5799 5799 5799 5799 5799 5798 5798 5797 5796 5796 5795 5794 5794 5793 5792 5792 5791 5791 5791 5790 5790 5790 5790 5789 5789 5789 5788
5798 5798 5797 5798 5798 5797 5797 5797 5797 5797 5797 5797 5796 5795 5794 5793 5793 5792 5792 5792 5791 5791 5790 5790 5789 5789 5788 5787 5786 5786 5785 5784 5784 5784 5783 5783 5782 5782 5782 5781 5781 5780 5780
5791 5791 5791 5790 5790 5790 5790 5790 5790 5791 5790 5790 5789 5789 5788 5787 5786 5786 5785 5785 5785 5784 5783 5783 5782 5781 5781 5780 5779 5778 5778 5777 5776 5776 5775 5775 5775 5774 5774 5773 5773 5772 5772
5783 5783 5783 5783 5783 5783 5783 5783 5784 5784 5783 5783 5782 5782 5781 5780 5780 5779 5778 5778 5778 5777 5776 5775 5775 5774 5773 5773 5772 5771 5770 5769 5769 5768 5768 5767 5767 5767 5766 5765 5764 5764 5764
5776 5776 5776 5776 5775 5775 5776 5776 5776 5776 5776 5776 5775 5774 5774 5773 5773 5772 5771 5771 5770 5770 5769 5768 5767 5767 5766 5765 5764 5763 5762 5762 5761 5761 5759 5759 5759 5758 5757 5757 5756 5756 5755
5768 5768 5768 5768 5768 5768 5768 5768 5768 5768 5768 5768 5767 5767 5767 5766 5765 5765 5764 5763 5763 5762 5761 5761 5760 5759 5759 5758 5756 5755 5754 5753 5752 5751 5751 5751 5750 5750 5749 5748 5748 5747 5746
5760 5760 5760 5760 5760 5760 5760 5760 5760 5760 5760 5760 5760 5760 5759 5759 5758 5757 5757 5756 5755 5755 5754 5753 5753 5752 5751 5749 5748 5747 5746 5744 5744 5743 5742 5742 5741 5741 5740 5739 5739 5738 5737
5752 5752 5752 5752 5752 5752 5752 5752 5752 5752 5752 5752 5752 5752 5752 5751 5750 5750 5749 5748 5748 5747 5746 5745 5745 5744 5742 5741 5740 5739 5737 5736 5735 5735 5733 5733 5732 5731 5731 5731 5730 5730 5729
5744 5744 5744 5744 5744 5744 5744 5744 5744 5744 5744 5745 5745 5745 5744 5744 5743 5742 5741 5740 5740 5739 5737 5737 5736 5735 5734 5733 5731 5730 5728 5727 5726 5726 5724 5723 5723 5722 5722 5722 5721 5721 5720